Location: Solon
(41.3849°N, 81.4081°W)
Time: 04:55:25
(UTC-04:00)

CZ-2C R/B - Visible Passes

Search period start: 22 April 2018 00:00
Search period end: 02 May 2018 00:00
Orbit: 704 x 909 km, 98.2° (Epoch: 21 April)

Date Brightness Start Highest point End Pass type
(mag) Time Alt. Az. Time Alt. Az. Time Alt. Az.
22 Apr 4.9 00:30:14 24° NW 00:30:14 24° NW 00:32:26 10° NNW visible
22 Apr 4.9 22:23:57 14° ENE 22:23:57 14° ENE 22:26:16 10° NNE visible
23 Apr 4.3 00:05:00 35° NNW 00:05:00 35° NNW 00:07:52 10° NNW visible
23 Apr 3.8 23:39:46 43° N 23:39:46 43° N 23:43:04 10° N visible
24 Apr 3.9 23:14:32 35° NE 23:14:32 35° NE 23:18:01 10° N visible
25 Apr 5.3 00:55:36 16° WNW 00:55:36 16° WNW 00:57:08 10° NW visible
25 Apr 4.3 22:49:19 24° ENE 22:49:19 24° ENE 22:52:43 10° NNE visible
26 Apr 4.7 00:30:22 26° NW 00:30:22 26° NW 00:32:59 10° NNW visible
26 Apr 4.8 22:24:05 15° ENE 22:24:17 15° ENE 22:26:57 10° NNE visible
27 Apr 4.0 00:05:08 41° NW 00:05:08 41° NW 00:08:25 10° NNW visible
27 Apr 3.5 23:39:54 51° N 23:39:54 51° N 23:43:38 10° N visible
28 Apr 3.7 23:14:40 39° NE 23:14:40 39° NE 23:18:37 10° N visible
29 Apr 5.1 00:55:44 17° WNW 00:55:44 17° WNW 00:57:39 10° NW visible
29 Apr 4.2 22:49:27 25° ENE 22:49:27 25° ENE 22:53:20 10° NNE visible
30 Apr 4.5 00:30:30 29° WNW 00:30:30 29° WNW 00:33:32 10° NNW visible
30 Apr 4.8 22:24:13 15° ENE 22:24:48 16° ENE 22:27:39 10° NNE visible
01 May 3.7 00:05:16 47° NW 00:05:16 47° NW 00:09:00 10° NNW visible
01 May 3.2 23:40:03 61° N 23:40:03 61° N 23:44:14 10° N visible
